This is the latest recevied weather packets stored in our database for station/object SQ9NFI-4. If no packets are shown the sender has not sent any weather packets the latest 10 day(s).
| Time | Temp. | Humidity | Pressure | Rain* | Wind** | Luminosity | Snow |
|---|---|---|---|---|---|---|---|
| 1778098478 | 13.89° C | 79% | 1007.8 hPa | 0 mm | - | 0 W/m² | - |
| 1778098178 | 13.89° C | 81% | 1007.8 hPa | 0 mm | - | 0 W/m² | - |
| 1778097878 | 13.89° C | 84% | 1007.8 hPa | 0 mm | - | 0 W/m² | - |
| 1778097578 | 13.89° C | 85% | 1007.8 hPa | 0 mm | - | 0 W/m² | - |
| 1778097278 | 13.89° C | 83% | 1007.8 hPa | 0 mm | - | 0 W/m² | - |
| 1778096978 | 13.89° C | 81% | 1007.8 hPa | 0 mm | - | 0 W/m² | - |
| 1778096678 | 13.89° C | 82% | 1007.8 hPa | 0 mm | - | 0 W/m² | - |
| 1778096378 | 13.89° C | 80% | 1007.8 hPa | 0 mm | - | 0 W/m² | - |
| 1778096078 | 13.89° C | 78% | 1007.5 hPa | 0 mm | - | 0 W/m² | - |
| 1778095778 | 14.44° C | 81% | 1007.5 hPa | 0 mm | - | 0 W/m² | - |
| 1778095478 | 14.44° C | 75% | 1007.5 hPa | 0 mm | - | 0 W/m² | - |
| 1778095178 | 14.44° C | 77% | 1007.5 hPa | 0 mm | - | 0 W/m² | - |
| 1778094278 | 15° C | 74% | 1007.5 hPa | 0 mm | - | 0 W/m² | - |
| 1778093978 | 15° C | 78% | 1007.5 hPa | 0 mm | - | 0 W/m² | - |
| 1778093678 | 15.56° C | 74% | 1007.5 hPa | 0 mm | - | 0 W/m² | - |
| 1778093378 | 15.56° C | 73% | 1007.5 hPa | 0 mm | - | 0 W/m² | - |
| 1778093078 | 16.11° C | 75% | 1006.8 hPa | 0 mm | - | 0 W/m² | - |
| 1778092778 | 16.11° C | 71% | 1006.8 hPa | 0 mm | - | 0 W/m² | - |
| 1778092478 | 16.67° C | 73% | 1006.8 hPa | 0 mm | - | 0 W/m² | - |
| 1778092178 | 17.22° C | 70% | 1006.8 hPa | 0 mm | - | 0 W/m² | - |
| 1778091878 | 17.22° C | 70% | 1006.8 hPa | 0 mm | - | 1 W/m² | - |
| 1778091578 | 17.78° C | 69% | 1006.4 hPa | 0 mm | - | 1 W/m² | - |
| 1778091278 | 18.33° C | 63% | 1006.4 hPa | 0 mm | - | 2 W/m² | - |
| 1778090978 | 18.33° C | 64% | 1006.4 hPa | 0 mm | - | 3 W/m² | - |
| 1778090678 | 19.44° C | 58% | 1006.4 hPa | 0 mm | - | 5 W/m² | - |
* Rain latest hour (hover to see other rain measurements)
** Current wind speed in m/s (hover to see current wind gust speed)